THOR ABLESTAR DEB, 268

Orbit data source: Space-Track

THOR ABLESTAR DEB, 268 is space debris in LEO originally from a launch on Thu, 29 Jun 1961 UTC launched from the Air Force Eastern Test Range (AFETR). Debris objects in space refer to the collection of defunct objects orbiting the Earth. Examples of debris include non-operational satellites, rocket bodies, and fragments generated from explosions, collisions, or faulty payload assembly.

Loading next visibility...
Identifier
268, 1961-015CN
Orbit
LEO
Country
Flag of USUS
Related business
Manufacturer
Unknown
Mission
Spacecraft
Bus & Motor
Unknown
Mass
Unknown
Launch date (UTC)
1961-06-29 (65 years ago)
Launch vehicle
Unknown
Launch site
Air Force Eastern Test Range (AFETR)
Object type
Payload
Rocket body
Debris
Shape & HBR
Unknown shape, 0.1 m
Radar Cross Section
Medium (>0.1 m² and <1 m²)

Expand to show TLE details & history
Last TLE update: 15 hours ago

TLE from 15 hours ago
0 THOR ABLESTAR DEB
1 00268U 61015CN  26123.48466814  .00000592  00000-0  18950-2 0  9995
2 00268  67.9392 288.0787 0648208 179.7707 215.3282 12.51732260947664
Epoch: 2026-05-03T11:37Z
TLE epoch observation values (Epoch: 2026-05-03T11:37:55.327Z)
Latitude
28.62634°
Longitude
-95.07016°
Altitude
1,884.557 km
Speed
6.759 km/s
True Right ascension
20h 03m 11s
True Declination
28° 30' 06"
Sunlit
Object was in daylight at epoch
Visualization orbit readout
Latitude
Unknown
Longitude
Unknown
Altitude
Unknown
Speed
Unknown
Apparent Right ascension
Unknown
Apparent Declination
Unknown
Sunlit
N/A
Visualization observer readout
Local Sidereal Time
09:57:14
Azimuth
Unknown
Elevation
Unknown
Doppler factor
Unknown
Orbital elements
Apogee altitude
1,963.423 km
Perigee altitude
947.84 km
Semi-major axis
7,833.768 km
Eccentricity
0.06482
Inclination
67.9392°
RAAN
288.0787°
Arg. of periapsis
179.7707°
True anomaly
211.30315°
Mean anomaly
215.3282°
Eccentric anomaly
213.28971°
Mean motion
3.13031 °/min
Orbital period
115 mins
BSTAR
0.001895
Loading maneuver chart data...
Computing Atmospheric mass density...
Loading historical data...
Loading historical data...
Loading historical data...
Loading historical data...
Loading historical data...
Loading historical data...
Loading historical data...

Documentation

Showing up to 5 results
|